Location: ??
(35.5990°N, 139.7298°E)
Time: 08:38:44
(UTC+00:00)

STARLINK-1369 - Pass Details

Date: 07 June 2020
Orbit: 548 x 551 km, 53.0° (Epoch: 06 July)

Event Time Altitude Azimuth Distance (km) Brightness Sun altitude
Rises 11:42:31 0° 228° (SW) 2,700 7.2 -18.0°
Reaches altitude 10° 11:44:44 10° 229° (SW) 1,810 6.3 -18.3°
Maximum altitude 11:48:51 80° 317° (NW) 560 3.6 -18.9°
Drops below altitude 10° 11:52:59 10° 44° (NE) 1,821 6.3 -19.5°
Sets 11:55:18 0° 46° (NE) 2,743 7.2 -19.8°
